Location: San Bernardino
(34.1083°N, 117.2898°W)
Time: 15:24:34
(UTC+00:00)

ATLAS 2AS CENTAUR R/B - Pass Details

Date: 13 April 2024
Orbit: 1016 x 1195 km, 63.7° (Epoch: 27 May)

Event Time Altitude Azimuth Distance (km) Brightness Sun altitude
Exits shadow 12:37:47 10° 242° (WSW) 3,073 4.4 -9.2°
Maximum altitude 12:44:31 38° 308° (NW) 1,691 3.5 -7.9°
Drops below altitude 10° 12:51:10 10° 15° (NNE) 3,011 5.5 -6.6°
Sets 12:54:04 0° 24° (NNE) 3,945 6.3 -6.0°
